SCP
0 0 0 0 0 0 0 0 0 0 0 0 0 0 0 0 0 0 0 0 0 0 0 0 0 0 0 0 0 0 0 0 0 0 0 0 0 0 0 0 0 0 0 0 0 0 0 0 0
0 0 0 0 0 0 0 0 0 0 0 0 0 0 0 0 0 0 0 0 0 0 0 0 0 0 0 0 0 0 0 0 0 0 0 0 0 0 0 0 0 0 0 0 0 0 0 0 0
0 0 0 0 0 0 0 0 0 0 0 0 0 0 0 0 0 0 0 0 0 0 0 0 0 0 0 0 0 0 0 0 0 0 0 0 0 0 0 0 0 0 0 0 0 0 0 0 0
0 0 0 0 0 0 0 0 0 0 0 0 0 0 0 0 0 0 0 0 0 0 0 0 0 0 0 0 0 0 0 0 0 0 0 0 0 0 0 0 0 0 0 0 0 0 0 0 0
0 0 0 0 0 0 0 0 0 0 0 0 0 0 0 0 0 0 0 0 0 0 0 0 0 0 0 0 0 0 0 0 0 0 0 0 0 0 0 0 0 0 0 0 0 0 0 0 0
0 0 0 0 0 0 0 0 0 0 0 0 0 0 0 0 0 0 0 0 0 0 0 0 0 0 0 0 0 0 0 0 0 0 0 0 0 0 0 0 0 0 0 0 0 0 0 0 0
0 0 0 0 0 0 0 0 0 0 0 0 0 0 0 0 0 0 0 0 0 0 0 0 0 0 0 0 0 0 0 0 0 0 0 0 0 0 0 0 0 0 0 0 0 0 0 0 0
0 0 0 0 0 0 0 0 0 0 0 0 0 0 0 0 0 0 0 0 0 0 0 0 0 0 0 0 0 0 0 0 0 0 0 0 0 0 0 0 0 0 0 0 0 0 0 0 0
0 0 0 0 0 0 0 0 0 0 0 0 0 0 0 0 0 0 0 0 0 0 0 0 0 0 0 0 0 0 0 0 0 0 0 0 0 0 0 0 0 0 0 0 0 0 0 0 0
0 0 0 0 0 0 0 0 0 0 0 0 0 0 0 0 0 0 0 0 0 0 0 0 0 0 0 0 0 0 0 0 0 0 0 0 0 0 0 0 0 0 0 0 0 0 0 0 0
0 0 0 0 0 0 0 0 0 0 0 0 0 0 0 0 0 0 0 0 0 0 0 0 0 0 0 0 0 0 0 0 0 0 0 0 0 0 0 0 0 0 0 0 0 0 0 0 0
0 0 0 0 0 0 0 0 0 0 0 0 0 0 0 0 0 0 0 0 0 0 0 0 0 0 0 0 0 0 0 0 0 0 0 0 0 0 0 0 0 0 0 0 0 0 0 0 0
0 0 0 0 0 0 0 0 0 0 0 0 0 0 0 0 0 0 0 0 0 0 0 0 0 0 0 0 0 0 0 0 0 0 0 0 0 0 0 0 0 0 0 0 0 0 0 0 0
0 0 0 0 0 0 0 0 0 0 0 0 0 0 0 0 0 0 0 0 0 0 0 0 0 0 0 0 0 0 0 0 0 0 0 0 0 0 0 0 0 0 0 0 0 0 0 0 0
0 0 0 0 0 0 0 0 0 0 0 0 0 0 0 0 0 0 0 0 0 0 0 0 0 0 0 0 0 0 0 0 0 0 0 0 0 0 0 0 0 0 0 0 0 0 0 0 0
0 0 0 0 0 0 0 0 0 0 0 0 0 0 0 0 0 0 0 0 0 0 0 0 0 0 0 0 0 0 0 0 0 0 0 0 0 0 0 0 0 0 0 0 0 0 0 0 0
0 0 0 0 0 0 0 0 0 0 0 0 0 0 0 0 0 0 0 0 0 0 0 0 0 0 0 0 0 0 0 0 0 0 0 0 0 0 0 0 0 0 0 0 0 0 0 0 0
0 0 0 0 0 0 0 0 0 0 0 0 0 0 0 0 0 0 0 0 0 0 0 0 0 0 0 0 0 0 0 0 0 0 0 0 0 0 0 0 0 0 0 0 0 0 0 0 0
0 0 0 0 0 0 0 0 0 0 0 0 0 0 0 0 0 0 0 0 0 0 0 0 0 0 0 0 0 0 0 0 0 0 0 0 0 0 0 0 0 0 0 0 0 0 0 0 0
0 0 0 0 0 0 0 0 0 0 0 0 0 0 0 0 0 0 0 0 0 0 0 0 0 0 0 0 0 0 0 0 0 0 0 0 0 0 0 0 0 0 0 0 0 0 0 0 0
0 0 0 0 0 0 0 0 0 0 0 0 0 0 0 0 0 0 0 0 0 0 0 0 0 0 0 0 0 0 0 0 0 0 0 0 0 0 0 0 0 0 0 0 0 0 0 0 0
0 0 0 0 0 0 0 0 0 0 0 0 0 0 0 0 0 0 0 0 0 0 0 0 0 0 0 0 0 0 0 0 0 0 0 0 0 0 0 0 0 0 0 0 0 0 0 0 0
0 0 0 0 0 0 0 0 0 0 0 0 0 0 0 0 0 0 0 0 0 0 0 0 0 0 0 0 0 0 0 0 0 0 0 0 0 0 0 0 0 0 0 0 0 0 0 0 0
0 0 0 0 0 0 0 0 0 0 0 0 0 0 0 0 0 0 0 0 0 0 1 1 0 0 0 0 0 0 0 0 0 0 0 0 0 0 0 0 0 0 0 0 0 0 0 0 0
0 0 0 0 0 0 0 0 0 0 0 0 0 0 0 0 0 0 0 0 0 0 1 1 0 0 0 0 0 0 0 0 0 0 0 0 0 0 0 0 0 0 0 0 0 0 0 0 0
0 0 0 0 0 0 0 0 0 0 0 0 0 0 0 0 0 0 0 0 0 0 0 1 0 0 0 0 0 0 0 0 0 0 0 0 0 0 0 0 0 0 0 0 0 0 0 0 0
0 0 0 0 0 0 0 0 0 0 0 0 0 0 0 0 0 0 0 0 0 0 0 0 0 0 0 0 0 0 0 0 0 0 0 0 0 0 0 0 0 0 0 0 0 0 0 0 0
0 0 0 0 0 0 0 0 0 0 0 0 0 0 0 0 0 0 0 0 0 0 0 0 0 0 0 0 0 0 0 0 0 0 0 0 0 0 0 0 0 0 0 0 0 0 0 0 0
0 0 0 0 0 0 0 0 0 0 0 0 0 0 0 0 0 0 0 0 0 0 0 0 0 0 0 0 0 0 0 0 0 0 0 0 0 0 0 0 0 0 0 0 0 0 0 0 0
0 0 0 0 0 0 0 0 0 0 0 0 0 0 0 0 0 0 0 0 0 0 0 0 0 0 0 0 0 0 0 0 0 0 0 0 0 0 0 0 0 0 0 0 0 0 0 0 0
Wind_Speed
9 9 6 2 2 0 4 5 6 7 7 9 9 9 12 13 9 7 2 3 6 8 10 10 10 10 11 11 11 11 11 10 10 10 10 10 10 10 10 9 9 9 9 9 9 9 8 8 8
8 6 3 2 1 2 5 5 8 8 7 6 8 10 12 12 11 7 3 4 8 11 11 10 10 10 11 11 11 10 10 10 10 10 10 10 10 10 9 9 9 9 9 9 9 9 8 8 8
10 7 3 2 1 3 5 5 7 8 6 6 7 10 9 7 8 6 4 5 9 11 11 11 11 10 11 11 11 10 10 11 10 10 10 10 9 9 9 9 10 9 9 9 9 8 8 8 9
5 3 2 0 4 6 6 6 6 7 6 6 7 9 9 8 6 7 6 7 11 11 11 10 11 10 10 11 11 11 11 10 10 10 10 10 9 9 9 9 9 9 8 9 9 9 9 9 9
3 2 1 2 4 5 5 6 5 6 6 8 10 11 9 8 9 8 5 7 10 10 10 10 11 10 10 10 11 10 10 10 10 10 9 10 10 10 10 10 9 9 8 8 9 9 9 9 9
3 2 1 2 5 5 5 5 6 7 7 8 8 9 7 7 7 6 5 7 9 9 10 10 11 10 10 10 10 10 10 9 9 9 9 9 10 10 11 10 10 9 8 8 9 9 9 9 8
2 1 1 2 4 4 4 6 6 7 7 6 6 8 7 8 6 6 6 7 8 8 8 8 8 8 9 10 9 9 9 9 8 8 8 8 8 10 11 11 10 10 9 10 10 9 9 9 8
3 2 1 2 3 3 4 6 6 7 6 5 5 6 7 8 6 6 6 7 7 7 7 7 7 8 7 6 8 8 8 7 6 6 6 6 7 8 9 10 10 10 10 10 9 9 8 8 7
3 1 0 2 3 3 4 4 5 5 6 7 8 9 10 9 7 6 5 6 5 5 5 5 6 6 7 6 7 6 6 5 4 3 3 3 2 4 5 8 9 9 9 8 7 7 6 5 4
1 1 2 3 3 3 3 2 4 4 5 6 8 9 9 8 6 6 5 6 6 4 4 4 5 5 5 5 5 3 3 3 2 2 2 1 3 4 6 7 7 7 6 5 5 4 3 2 1
2 2 2 3 3 3 3 3 3 4 4 5 6 7 7 7 5 5 5 5 5 5 4 4 4 5 4 3 3 2 2 2 1 2 3 2 3 3 3 2 3 2 2 1 2 1 0 2 2
2 2 2 3 3 3 2 2 3 4 4 5 5 6 6 5 5 4 4 5 5 5 4 4 3 4 4 4 3 2 2 1 2 2 3 3 2 2 2 2 2 1 1 1 1 1 2 3 3
3 2 2 2 2 3 3 3 3 3 4 5 5 4 5 4 4 4 4 5 6 6 4 3 3 3 4 4 2 3 2 2 2 2 2 3 2 2 2 2 2 2 2 1 2 3 4 5 5
2 2 2 2 4 3 4 2 2 2 4 5 5 4 4 3 4 3 3 4 5 5 5 4 3 3 4 4 3 3 3 3 2 2 2 3 3 2 2 3 2 2 2 2 2 3 4 3 4
3 3 4 4 5 4 3 2 2 3 5 4 4 4 3 3 3 3 3 3 4 4 4 4 4 3 3 4 3 3 2 3 2 1 1 2 3 2 2 3 3 2 2 2 3 4 3 3 3
5 5 4 5 6 6 4 2 2 3 5 4 4 4 3 3 3 2 3 3 4 4 4 3 4 3 3 3 3 3 2 3 2 1 1 2 3 3 3 2 2 2 2 3 2 2 3 3 3
6 5 5 4 5 4 4 2 3 2 4 5 5 5 4 3 3 3 4 3 3 4 4 4 4 4 3 3 3 3 2 2 2 1 1 2 2 3 3 2 2 3 2 2 2 3 2 3 3
4 3 3 3 3 4 3 4 4 4 3 3 4 5 5 4 2 3 4 4 3 3 3 4 4 4 3 2 2 2 2 2 2 1 2 2 1 3 3 2 2 3 2 2 3 2 2 2 1
5 5 4 1 1 2 3 3 3 3 3 3 3 3 4 5 4 3 3 4 4 3 3 3 3 4 3 2 2 2 2 2 1 1 2 2 1 2 2 2 2 2 2 2 2 2 2 1 1
6 6 5 2 3 3 3 4 3 3 3 2 2 2 3 4 4 3 3 3 3 3 3 3 3 3 3 2 1 2 2 1 2 1 1 1 1 1 1 2 2 2 2 2 1 1 1 1 2
6 5 3 4 4 5 5 5 5 4 4 3 2 2 3 3 3 3 3 2 3 3 3 2 2 2 3 3 2 2 1 1 1 1 1 1 1 1 1 1 1 1 2 1 1 1 1 0 1
5 3 5 6 6 5 7 5 5 6 5 5 4 3 2 3 3 3 3 3 3 3 3 2 2 2 2 3 2 3 1 1 1 1 1 1 1 1 1 1 1 1 1 1 1 1 1 1 0
5 6 8 9 9 9 10 7 4 7 6 6 5 4 3 3 4 4 3 3 3 3 2 1 2 2 2 2 3 3 1 1 1 1 1 1 1 2 1 1 1 1 1 1 1 1 1 1 1
5 8 11 10 8 9 9 7 3 4 5 6 6 5 4 4 4 4 4 4 3 3 2 1 1 1 1 2 3 3 2 2 1 1 2 1 1 1 2 2 1 1 1 1 1 1 1 0 0
6 6 4 4 6 6 5 4 2 3 4 4 5 4 4 4 3 3 4 3 2 2 2 1 1 0 0 1 1 2 2 2 2 1 2 1 1 1 2 2 2 1 1 1 1 1 1 1 1
6 8 5 5 5 5 4 2 3 6 5 4 4 4 4 4 4 3 3 3 2 1 1 1 1 1 1 1 1 2 2 2 1 1 1 2 1 1 2 1 2 2 2 1 1 1 2 2 2
7 6 8 8 10 8 3 1 2 4 4 4 4 4 4 4 4 3 3 2 2 2 1 1 1 1 2 1 1 2 2 2 1 1 0 1 1 1 1 1 1 1 1 1 1 1 1 1 1
8 8 5 4 5 7 5 3 3 4 3 2 3 3 3 4 3 2 3 2 1 1 1 1 1 1 2 2 2 1 2 2 2 1 1 1 2 2 2 1 2 2 2 1 1 1 2 1 1
7 8 6 5 5 5 5 1 1 3 3 3 3 4 3 2 2 1 2 2 1 1 1 1 1 1 1 2 2 2 2 2 2 1 1 1 2 2 2 2 2 2 2 1 1 1 1 2 2
7 7 7 5 5 5 6 3 1 2 2 3 3 3 3 2 1 1 1 1 1 1 1 0 1 1 1 1 2 2 2 2 2 2 2 2 2 2 2 2 2 2 2 2 2 2 2 3 3
Wind_Direction
277 256 248 253 257 190 62 68 65 57 53 49 47 53 60 50 50 81 127 90 87 95 103 94 76 69 65 66 68 65 64 64 61 59 63 64 64 62 61 61 63 66 71 75 75 76 73 69 65
277 281 274 245 260 81 68 70 73 67 66 61 57 56 65 63 73 96 105 83 88 90 95 90 81 73 70 70 70 66 64 64 63 61 63 65 67 67 64 59 65 68 71 74 73 72 72 71 67
263 266 270 264 33 71 89 76 83 81 67 61 69 59 53 61 75 98 112 108 93 91 94 94 89 80 75 73 71 67 66 64 63 63 63 62 63 65 66 66 65 66 73 76 74 73 74 72 68
262 260 247 65 58 61 86 94 89 88 74 70 74 75 68 62 79 101 119 115 102 99 101 103 98 89 80 75 72 70 67 64 63 62 62 61 62 65 67 69 68 67 71 76 77 77 76 73 68
242 258 233 115 84 82 81 85 83 82 72 71 79 88 84 73 89 102 116 107 106 109 110 112 109 100 91 81 74 72 70 67 65 65 64 64 64 65 69 69 66 65 71 82 86 82 80 76 70
258 248 241 104 91 79 78 83 80 82 84 84 93 97 95 102 99 110 111 106 107 112 113 117 120 112 102 91 81 75 74 72 70 68 68 67 68 68 69 68 63 61 74 87 92 86 82 79 71
284 292 228 114 100 82 69 64 63 67 64 65 86 99 112 111 115 123 118 110 109 112 120 128 131 120 111 103 92 85 81 79 77 72 70 71 74 75 73 68 61 62 75 87 90 87 84 81 72
290 293 204 120 114 86 73 77 73 67 66 62 66 92 114 122 134 129 120 114 117 123 125 132 135 136 129 118 107 103 94 88 86 83 79 83 86 84 80 73 64 66 77 85 88 89 89 85 76
272 290 102 94 104 99 89 93 97 95 89 75 75 84 109 125 134 132 122 113 112 117 125 129 129 134 133 129 123 124 119 112 107 105 100 102 108 99 82 79 77 74 79 86 88 89 90 92 86
195 63 45 64 74 90 90 85 106 113 98 89 93 98 114 133 143 144 137 129 128 123 120 116 119 120 119 118 129 144 131 136 136 116 108 83 75 81 85 89 88 87 85 87 87 89 100 110 88
133 127 81 74 86 88 86 84 69 101 99 107 116 121 130 139 147 145 134 131 129 129 122 122 120 121 121 116 123 119 111 114 97 93 98 75 76 96 98 104 100 94 102 81 83 81 54 79 64
140 118 98 97 82 90 88 93 77 71 92 108 107 119 131 146 142 131 129 128 126 121 119 112 111 117 119 114 115 107 97 96 67 46 74 68 61 75 89 91 94 94 80 67 68 66 53 62 63
163 151 131 140 129 118 106 83 87 85 111 116 112 116 139 138 129 131 132 130 127 127 124 116 110 112 114 110 107 104 91 87 79 46 64 77 62 59 72 82 70 66 59 59 46 49 50 45 35
146 147 168 178 167 159 134 127 133 141 144 146 140 141 144 133 125 123 132 133 131 133 137 132 123 113 104 102 99 94 93 84 77 65 52 81 80 64 63 71 61 55 48 46 54 55 55 55 48
192 196 197 196 193 168 140 149 179 175 162 158 146 140 133 116 119 139 135 127 127 129 128 131 127 104 98 102 104 99 99 96 77 63 45 71 84 81 68 70 69 63 48 39 40 52 50 54 54
211 219 208 195 196 179 183 194 171 170 166 159 155 149 147 143 143 135 121 114 109 112 114 118 118 113 100 98 103 101 98 98 90 65 39 63 78 83 76 71 71 64 55 44 45 44 54 47 48
221 216 215 197 188 190 190 190 167 189 184 171 172 166 163 154 147 135 119 113 115 117 125 122 115 112 102 95 98 95 96 99 100 85 57 47 58 81 83 73 73 73 64 47 49 46 47 47 42
248 236 228 218 179 184 191 192 176 189 207 196 179 170 162 143 131 121 122 118 105 103 110 109 114 111 107 99 98 99 100 90 86 82 76 62 48 71 76 84 83 81 71 48 41 47 39 49 35
288 291 280 279 227 242 224 217 201 186 194 207 188 164 156 146 136 115 107 115 111 108 101 106 100 97 86 93 110 120 117 115 109 94 88 80 53 64 76 69 76 72 77 76 58 51 39 12 19
266 267 265 256 229 249 244 238 223 179 173 179 179 160 148 137 131 113 105 106 115 119 116 111 107 110 111 86 111 132 127 129 124 120 108 111 95 63 85 94 86 90 91 78 62 63 51 348 4
267 270 280 273 274 248 240 235 209 169 169 162 167 159 135 134 131 120 100 102 106 106 103 99 108 118 117 116 101 82 110 126 118 130 138 176 145 126 110 102 106 113 118 128 132 109 96 19 331
280 306 283 262 267 256 243 252 194 168 167 172 172 161 134 125 116 105 100 90 91 92 99 110 114 114 121 131 125 128 123 155 161 164 163 182 154 137 150 137 132 125 110 119 152 129 138 138 290
294 302 282 265 263 267 253 255 198 172 177 169 157 137 122 107 99 95 92 80 87 91 97 115 134 142 131 133 142 144 145 155 172 157 157 185 175 179 174 163 163 164 158 171 165 131 136 147 169
285 275 264 250 250 257 251 248 203 188 173 156 145 133 121 106 98 98 94 78 69 78 80 73 92 115 154 166 162 157 171 171 161 185 172 196 186 195 183 181 190 190 184 188 190 172 189 175 160
261 276 276 248 229 240 240 238 164 120 121 123 128 126 120 113 108 97 94 85 68 73 77 95 91 110 235 216 182 174 172 179 187 208 190 179 182 211 204 194 197 196 208 199 190 182 203 204 190
266 266 273 288 287 288 270 221 125 114 108 122 126 125 121 120 115 107 108 106 117 104 106 119 136 188 224 229 223 208 175 179 189 211 203 179 186 208 206 195 200 201 209 206 202 202 218 208 200
272 270 283 286 286 284 252 200 163 151 144 140 138 131 126 122 118 116 115 121 146 139 139 136 181 201 211 229 237 227 190 167 196 218 237 197 184 187 167 199 213 211 218 215 195 203 229 221 198
256 285 283 270 287 282 271 235 198 178 155 132 126 119 113 109 110 116 130 127 123 136 143 177 211 204 196 215 232 231 209 179 208 202 219 226 192 174 166 198 187 203 217 214 194 205 217 215 208
247 259 269 274 265 280 289 305 50 147 149 167 158 141 124 135 133 118 125 138 163 168 147 201 223 213 208 223 235 229 207 191 203 205 225 234 204 174 181 198 202 203 206 206 195 219 209 220 222
262 265 268 271 275 278 283 281 343 126 143 155 154 149 145 140 139 143 151 147 172 178 175 234 251 244 244 238 245 244 226 200 197 207 223 230 199 194 200 202 210 209 203 206 208 224 220 220 223